Location: Bidwell Hollow
(37.7387°N, 90.1707°W)
Time: 01:31:32
(UTC+00:00)

Altair - Visible Passes

Search period start: 12 May 2026 00:00
Search period end: 22 May 2026 00:00
Orbit: 1501 x 1682 km, 47.2° (Epoch: 11 May)

Date Brightness Start Highest point End Pass type
(mag) Time Alt. Az. Time Alt. Az. Time Alt. Az.
12 May 8.6 09:57:31 10° SSW 10:06:18 38° SE 10:15:18 10° ENE visible
13 May 8.7 09:32:37 10° S 09:41:08 35° SE 09:49:53 10° ENE visible
14 May 8.7 09:08:02 11° S 09:15:59 32° SE 09:24:24 10° ENE visible
15 May 8.8 08:44:20 14° S 08:50:50 29° SE 08:58:54 10° ENE visible
16 May 8.8 08:20:34 17° SSE 08:25:42 26° SE 08:33:22 10° ENE visible
16 May 7.8 10:19:36 10° SW 10:29:26 81° SE 10:39:36 10° ENE visible
17 May 8.9 07:56:44 18° SSE 08:00:34 23° SE 08:07:46 10° ENE visible
17 May 7.8 09:54:45 11° SW 10:04:11 76° SE 10:14:17 10° ENE visible
18 May 8.9 07:32:51 18° SE 07:35:28 20° SE 07:42:06 10° E visible
18 May 7.7 09:30:52 17° SW 09:38:56 71° SE 09:48:58 10° ENE visible
19 May 9.0 07:08:55 17° SE 07:10:22 18° ESE 07:16:21 10° E visible
19 May 7.7 09:06:56 22° SW 09:13:42 66° SE 09:23:39 10° ENE visible
20 May 9.1 06:44:56 16° SE 06:45:16 16° ESE 06:50:27 10° E visible
20 May 7.8 08:42:56 28° SSW 08:48:29 62° SE 08:58:19 10° ENE visible
21 May 9.2 06:20:54 13° ESE 06:20:54 13° ESE 06:24:21 10° E visible
21 May 7.8 08:18:53 34° SSW 08:23:17 57° SE 08:32:59 10° ENE visible
